Weather History for PAPO - March, 2013

Change the Weather History Date:

Saturday, March 2, 2013

  Actual Average Record
Temperature  
Mean Temperature -6 °F -  
Max Temperature 1 °F 3 °F 19 °F (2015)
Min Temperature -14 °F -2 °F -29 °F (2009)
Degree Days  
Heating Degree Days 72    
Moisture  
Dew Point -14 °F    
Average Humidity 70    
Maximum Humidity 92    
Minimum Humidity 49    
Precipitation  
Precipitation 0.00 in - - ()
Sea Level Pressure  
Sea Level Pressure 30.19 in    
Wind  
Wind Speed 5 mph (NE)    
Max Wind Speed 13 mph    
Max Gust Speed -    
Visibility 9 miles    
Events      
Averages and records for this station are not official NWS values.
T = Trace of Precipitation, MM = Missing Value Source: NWS Daily Summary

Daily Weather History Graph

Daily Weather History Graph

Search for Another Location

Airport or City:

Trip Planner

Search our weather history database for the weather conditions in past years. The results will help you decide how hot, cold, wet, or windy it might be!

Date:

Astronomy

Mar. 02, 2013 Rise Set
Actual Time 9:21 AM AKST 7:19 PM AKST
Civil Twilight 8:24 AM AKST 8:16 PM AKST
Nautical Twilight 7:18 AM AKST 9:21 PM AKST
Astronomical Twilight 6:09 AM AKST 10:31 PM AKST
Moon 3:01 AM AKST (3/2) 8:54 AM AKST (3/2)
Length of Visible Light 11h 51m
Length of Day
9h 57m
Waning Gibbous, 72% of the Moon is Illuminated
Mar 2
Waning Gibbous
Mar 4
Last Quarter
Mar 11
New
Mar 19
First Quarter
Mar 27
Full

Hourly Weather History & Observations

Time (AKST) Temp. Windchill Dew Point Humidity Pressure Visibility Wind Dir Wind Speed Gust Speed Precip Events Conditions
12:16 AM -11.2 °F -23.0 °F -20.2 °F 64% 30.20 in 10.0 mi North 4.6 mph - N/A   Clear
12:36 AM -11.2 °F -24.8 °F -18.4 °F 70% 30.20 in 10.0 mi NNW 5.8 mph - N/A   Clear
12:56 AM -11.2 °F -24.8 °F -18.4 °F 70% 30.20 in 10.0 mi North 5.8 mph - N/A   Clear
1:16 AM -11.2 °F -27.8 °F -20.2 °F 64% 30.18 in 10.0 mi North 8.1 mph - N/A   Clear
1:36 AM -14.8 °F -29.1 °F -20.2 °F 77% 30.19 in 10.0 mi NNE 5.8 mph - N/A   Clear
1:56 AM -11.2 °F -24.8 °F -18.4 °F 70% 30.19 in 10.0 mi North 5.8 mph - N/A   Clear
2:16 AM -14.8 °F -27.2 °F -23.8 °F 64% 30.18 in 10.0 mi NNE 4.6 mph - N/A   Clear
3:36 AM -9.4 °F -24.3 °F -20.2 °F 59% 30.17 in 10.0 mi NNE 6.9 mph - N/A   Clear
3:56 AM -11.2 °F -24.8 °F -22.0 °F 59% 30.17 in 10.0 mi NNE 5.8 mph - N/A   Clear
4:16 AM -9.4 °F -24.3 °F -14.8 °F 77% 30.17 in 10.0 mi NE 6.9 mph - N/A   Clear
4:36 AM -11.2 °F -30.1 °F -25.6 °F 49% 30.16 in 10.0 mi NE 10.4 mph - N/A   Clear
4:56 AM -11.2 °F -27.8 °F -22.0 °F 59% 30.17 in 10.0 mi NE 8.1 mph - N/A   Clear
5:16 AM -14.8 °F -30.8 °F -23.8 °F 64% 30.17 in 10.0 mi NE 6.9 mph - N/A   Clear
5:36 AM -11.2 °F -24.8 °F -18.4 °F 70% 30.17 in 10.0 mi NNE 5.8 mph - N/A   Clear
5:56 AM -13.0 °F -28.6 °F -20.2 °F 70% 30.17 in 10.0 mi NE 6.9 mph - N/A   Clear
6:16 AM -9.4 °F -18.6 °F -18.4 °F 65% 30.17 in 10.0 mi NE 3.5 mph - N/A   Clear
6:36 AM -11.2 °F -23.0 °F -23.8 °F 54% 30.17 in 10.0 mi NE 4.6 mph - N/A   Clear
6:56 AM -9.4 °F -22.7 °F -14.8 °F 77% 30.17 in 10.0 mi NNE 5.8 mph - N/A   Clear
7:16 AM -5.8 °F -16.7 °F -14.8 °F 65% 30.17 in 10.0 mi NNE 4.6 mph - N/A   Clear
7:36 AM -9.4 °F -20.9 °F -18.4 °F 65% 30.17 in 10.0 mi North 4.6 mph - N/A   Clear
7:56 AM -9.4 °F -22.7 °F -16.6 °F 71% 30.17 in 10.0 mi NNE 5.8 mph - N/A   Clear
8:16 AM -9.4 °F -20.9 °F -22.0 °F 54% 30.17 in 10.0 mi North 4.6 mph - N/A   Clear
8:36 AM -9.4 °F -24.3 °F -14.8 °F 77% 30.17 in 10.0 mi ENE 6.9 mph - N/A   Clear
8:56 AM -9.4 °F -20.9 °F -20.2 °F 59% 30.17 in 10.0 mi NE 4.6 mph - N/A   Clear
9:36 AM -11.2 °F -20.6 °F -23.8 °F 54% 30.17 in 10.0 mi North 3.5 mph - N/A   Clear
9:56 AM -11.2 °F -23.0 °F -20.2 °F 64% 30.17 in 10.0 mi NNE 4.6 mph - N/A   Clear
10:16 AM -4.0 °F -14.6 °F -5.8 °F 92% 30.18 in 10.0 mi East 4.6 mph - N/A   Clear
10:56 AM -5.8 °F - -14.8 °F 65% 30.20 in 10.0 mi Calm Calm - N/A   Clear
11:16 AM -7.6 °F - -14.8 °F 71% 30.20 in 10.0 mi Calm Calm - N/A   Clear
11:36 AM -4.0 °F -14.6 °F -7.6 °F 85% 30.21 in 1.8 mi NNW 4.6 mph - N/A   Clear
11:56 AM -5.8 °F -18.4 °F -11.2 °F 77% 30.21 in 0.2 mi NNW 5.8 mph - N/A   Unknown
12:16 PM -5.8 °F -16.7 °F -11.2 °F 77% 30.20 in 0.5 mi North 4.6 mph - N/A   Unknown
12:36 PM -5.8 °F -16.7 °F -11.2 °F 77% 30.20 in 0.5 mi North 4.6 mph - N/A   Unknown
12:56 PM -5.8 °F -16.7 °F -7.6 °F 92% 30.20 in 0.2 mi North 4.6 mph - N/A   Overcast
1:16 PM -5.8 °F -14.5 °F -9.4 °F 84% 30.20 in 0.5 mi North 3.5 mph - N/A   Overcast
1:36 PM -5.8 °F -14.5 °F -13.0 °F 71% 30.20 in 1.5 mi ENE 3.5 mph - N/A   Mostly Cloudy
1:56 PM -4.0 °F -12.4 °F -7.6 °F 85% 30.20 in 10.0 mi ESE 3.5 mph - N/A   Clear
2:16 PM -0.4 °F - -7.6 °F 72% 30.20 in 10.0 mi Calm Calm - N/A   Clear
2:36 PM -0.4 °F - -4.0 °F 85% 30.20 in 10.0 mi Calm Calm - N/A   Clear
3:16 PM -0.4 °F - -7.6 °F 72% 30.20 in 10.0 mi Calm Calm - N/A   Clear
3:36 PM 1.4 °F - -4.0 °F 78% 30.20 in 10.0 mi Calm Calm - N/A   Clear
3:56 PM 1.4 °F - -4.0 °F 78% 30.19 in 10.0 mi Calm Calm - N/A   Clear
4:16 PM 1.4 °F -6.2 °F -2.2 °F 85% 30.19 in 10.0 mi South 3.5 mph - N/A   Clear
4:36 PM 1.4 °F -6.2 °F -5.8 °F 72% 30.19 in 10.0 mi SSE 3.5 mph - N/A   Clear
4:56 PM 1.4 °F -11.3 °F -5.8 °F 72% 30.19 in 10.0 mi SSE 6.9 mph - N/A   Clear
5:16 PM 1.4 °F -14.5 °F -7.6 °F 66% 30.20 in 10.0 mi South 10.4 mph - N/A   Clear
5:36 PM -0.4 °F -18.4 °F -7.6 °F 72% 30.20 in 10.0 mi South 12.7 mph - N/A   Clear
6:16 PM -0.4 °F -17.6 °F -7.6 °F 72% 30.21 in 10.0 mi SSW 11.5 mph - N/A   Clear
6:36 PM -0.4 °F -17.6 °F -7.6 °F 72% 30.22 in 10.0 mi SSW 11.5 mph - N/A   Clear
6:56 PM -0.4 °F -16.7 °F -9.4 °F 66% 30.22 in 10.0 mi SSW 10.4 mph - N/A   Clear
7:16 PM -2.2 °F -16.8 °F -9.4 °F 71% 30.22 in 10.0 mi South 8.1 mph - N/A   Clear
7:36 PM -2.2 °F -15.6 °F -9.4 °F 71% 30.23 in 10.0 mi SSW 6.9 mph - N/A   Clear
7:56 PM -2.2 °F -12.5 °F -11.2 °F 66% 30.23 in 10.0 mi SSW 4.6 mph - N/A   Clear
8:16 PM -2.2 °F - -11.2 °F 66% 30.22 in 10.0 mi Calm Calm - N/A   Clear
8:36 PM -4.0 °F - -14.8 °F 60% 30.22 in 10.0 mi Calm Calm - N/A   Clear
8:56 PM -4.0 °F - -11.2 °F 71% 30.21 in 10.0 mi Calm Calm - N/A   Clear
9:16 PM -4.0 °F -12.4 °F -13.0 °F 65% 30.21 in 10.0 mi North 3.5 mph - N/A   Clear
9:36 PM -4.0 °F -16.3 °F -11.2 °F 71% 30.21 in 10.0 mi North 5.8 mph - N/A   Clear
9:56 PM -4.0 °F -14.6 °F -11.2 °F 71% 30.21 in 10.0 mi North 4.6 mph - N/A   Clear
10:16 PM -4.0 °F -16.3 °F -11.2 °F 71% 30.21 in 10.0 mi NNE 5.8 mph - N/A   Clear
10:36 PM -5.8 °F -21.2 °F -16.6 °F 60% 30.20 in 10.0 mi NNE 8.1 mph - N/A   Clear
10:56 PM -7.6 °F -23.4 °F -14.8 °F 71% 30.19 in 10.0 mi NE 8.1 mph - N/A   Clear
11:16 PM -7.6 °F -16.5 °F -18.4 °F 59% 30.20 in 10.0 mi East 3.5 mph - N/A   Clear
11:36 PM -5.8 °F -16.7 °F -11.2 °F 77% 30.20 in 10.0 mi ESE 4.6 mph - N/A   Clear
11:56 PM -2.2 °F -12.5 °F -9.4 °F 71% 30.20 in 10.0 mi ESE 4.6 mph - N/A   Clear